FW1542 Weather Reports


Display with metric or nautical units.
time (UTC)temp
F
wind
direction
speed
MPH
gust
MPH
rain 1hr
in
rain 24hr
in
rain mn
in
humidity
%
barometer
mb
20260904174613 88 159 1.0 8.0 0.00 0.00 0.00 69 1015.5
20260904174553 88 121 2.0 9.0 0.00 0.00 0.00 69 1013.9
20260904173056 88 142 4.0 9.0 0.00 0.00 0.00 70 1014.2
20260904173019 88 120 4.0 9.0 0.00 0.00 0.00 70 1015.6
20260904171558 87 188 4.0 8.0 0.00 0.00 0.00 71 1014.4
20260904171512 87 151 4.0 7.0 0.00 0.00 0.00 72 1015.8
20260904170101 87 138 3.0 9.0 0.00 0.00 0.00 72 1014.6
20260904170007 87 132 3.0 9.0 0.00 0.00 0.00 73 1016.0
20260904164553 87 150 2.0 7.0 0.00 0.00 0.00 73 1014.7
20260904164504 87 119 3.0 7.0 0.00 0.00 0.00 74 1016.1
20260904163052 86 105 3.0 7.0 0.00 0.00 0.00 75 1014.8
20260904163002 86 105 4.0 7.0 0.00 0.00 0.00 75 1016.1
20260904161610 86 145 3.0 8.0 0.00 0.00 0.00 76 1016.1
20260904154555 84 164 2.0 6.0 0.00 0.00 0.00 80 1016.0
20260904154552 84 183 1.0 7.0 0.00 0.00 0.00 80 1014.6
20260904153051 83 153 3.0 6.0 0.00 0.00 0.00 81 1016.0
20260904151558 83 229 2.0 9.0 0.00 0.00 0.00 83 1014.4
20260904151550 83 215 3.0 7.0 0.00 0.00 0.00 83 1015.8
20260904150056 82 128 3.0 8.0 0.00 0.00 0.00 85 1014.3
20260904150046 82 128 3.0 7.0 0.00 0.00 0.00 85 1015.7
20260904144609 81 110 3.0 13.0 0.00 0.00 0.00 85 1014.2
20260904144604 81 175 3.0 13.0 0.00 0.00 0.00 86 1015.8
20260904143103 81 59 5.0 11.0 0.00 0.00 0.00 86 1014.2
20260904143056 81 157 5.0 10.0 0.00 0.00 0.00 87 1015.9
20260904141559 81 145 4.0 12.0 0.00 0.00 0.00 87 1014.2
20260904141531 81 145 5.0 11.0 0.00 0.00 0.00 88 1015.9
20260904140058 80 171 3.0 11.0 0.00 0.00 0.00 88 1014.1
20260904140032 80 170 4.0 11.0 0.00 0.00 0.00 89 1015.8
20260904134602 80 139 3.0 11.0 0.00 0.00 0.00 89 1014.1
20260904134529 80 142 3.0 10.0 0.00 0.00 0.00 89 1015.7
20260904133105 79 111 3.0 10.0 0.00 0.00 0.00 89 1014.0
20260904133027 79 113 2.0 10.0 0.00 0.00 0.00 90 1015.6
20260904131556 79 134 6.0 12.0 0.00 0.00 0.00 89 1013.8
20260904131525 79 128 6.0 12.0 0.00 0.00 0.00 90 1015.3
20260904130058 79 157 3.0 8.0 0.00 0.00 0.00 89 1013.6
20260904130023 79 130 2.0 8.0 0.00 0.00 0.00 90 1015.1
20260904124602 79 129 2.0 8.0 0.00 0.00 0.00 89 1013.5
20260904124522 79 129 2.0 8.0 0.00 0.00 0.00 90 1015.0
20260904123056 79 174 2.0 9.0 0.00 0.00 0.00 89 1013.4
20260904123019 79 119 2.0 9.0 0.00 0.00 0.00 89 1014.8
20260904121553 79 138 3.0 10.0 0.00 0.00 0.00 89 1013.2
20260904121518 79 143 4.0 10.0 0.00 0.00 0.00 89 1014.6
20260904120056 79 115 2.0 9.0 0.00 0.00 0.00 89 1013.2
20260904120017 79 104 2.0 8.0 0.00 0.00 0.00 89 1014.5
20260904114557 79 139 3.0 8.0 0.00 0.00 0.00 88 1012.9
20260904114517 79 135 3.0 8.0 0.00 0.00 0.00 89 1014.5
20260904113054 79 0 2.0 9.0 0.00 0.00 0.00 88 1012.8
20260904113014 79 124 2.0 9.0 0.00 0.00 0.00 88 1014.4
20260904111553 79 155 1.0 5.0 0.00 0.00 0.00 88 1012.5
20260904111513 79 154 2.0 5.0 0.00 0.00 0.00 88 1014.1
20260904110101 79 176 0.0 4.0 0.00 0.00 0.00 87 1012.4
20260904110012 79 178 0.0 4.0 0.00 0.00 0.00 88 1014.0
20260904104555 79 0 2.0 8.0 0.00 0.00 0.00 87 1012.4
20260904104512 79 188 3.0 8.0 0.00 0.00 0.00 88 1014.1
20260904103103 80 0 1.0 9.0 0.00 0.00 0.00 87 1012.4
20260904103009 80 210 1.0 8.0 0.00 0.00 0.00 87 1014.2
20260904101554 80 146 1.0 8.0 0.00 0.00 0.00 86 1012.4
20260904101507 80 111 1.0 8.0 0.00 0.00 0.00 87 1014.1
20260904100056 80 197 4.0 11.0 0.00 0.00 0.00 86 1012.4
20260904100007 80 185 4.0 11.0 0.00 0.00 0.00 87 1014.2
20260904094556 80 167 3.0 12.0 0.00 0.00 0.00 86 1012.4
20260904094508 80 204 2.0 12.0 0.00 0.00 0.00 86 1014.1
20260904093055 80 156 3.0 10.0 0.00 0.00 0.00 86 1012.3
20260904093005 80 191 2.0 8.0 0.00 0.00 0.00 86 1014.0
20260904091557 80 169 3.0 10.0 0.00 0.00 0.00 86 1012.4
20260904091512 80 168 2.0 9.0 0.00 0.00 0.00 86 1014.1
20260904090049 80 133 4.0 9.0 0.00 0.00 0.00 85 1012.3
20260904090009 80 165 3.0 9.0 0.00 0.00 0.00 86 1014.1
20260904084602 80 149 4.0 11.0 0.00 0.00 0.00 85 1012.4
20260904084502 80 147 4.0 11.0 0.00 0.00 0.00 85 1014.1
20260904083103 80 126 4.0 10.0 0.00 0.00 0.00 85 1014.1
20260904081600 80 173 2.0 4.0 0.00 0.00 0.00 85 1014.2
20260904081555 80 0 2.0 6.0 0.00 0.00 0.00 84 1012.4
20260904080059 80 186 5.0 9.0 0.00 0.00 0.00 85 1014.1
20260904080048 80 153 3.0 12.0 0.00 0.00 0.00 84 1012.5
20260904074606 81 136 3.0 8.0 0.00 0.00 0.00 84 1014.3
20260904073055 81 143 3.0 10.0 0.00 0.00 0.00 84 1014.5
20260904071656 81 119 3.0 7.0 0.00 0.00 0.00 83 1014.7
20260904071623 81 152 2.0 11.0 0.00 0.00 0.00 83 1013.0
20260904070113 81 157 2.0 10.0 0.00 0.00 0.00 82 1012.8
20260904070106 81 187 2.0 9.0 0.00 0.00 0.00 83 1014.6
20260904064606 81 163 3.0 9.0 0.00 0.00 0.00 82 1012.8
20260904063056 81 137 3.0 12.0 0.00 0.00 0.00 82 1013.0
20260904063054 81 172 5.0 10.0 0.00 0.00 0.00 82 1014.7
20260904061551 81 142 6.0 12.0 0.00 0.00 0.00 82 1013.0
20260904061549 81 174 5.0 12.0 0.00 0.00 0.00 82 1014.7
20260904060100 81 168 5.0 16.0 0.00 0.00 0.00 81 1013.0
20260904060048 81 269 5.0 16.0 0.00 0.00 0.00 82 1014.7
20260904054556 81 182 5.0 15.0 0.00 0.00 0.00 81 1013.1
20260904054546 81 159 5.0 14.0 0.00 0.00 0.00 81 1014.8
20260904053104 82 173 5.0 11.0 0.00 0.00 0.00 80 1013.1
20260904053055 82 159 5.0 11.0 0.00 0.00 0.00 80 1014.7
20260904051554 82 153 5.0 15.0 0.00 0.00 0.00 79 1013.1
20260904051542 82 121 3.0 13.0 0.00 0.00 0.00 80 1014.7
20260904050056 82 198 7.0 12.0 0.00 0.00 0.00 78 1013.0
20260904050042 82 164 6.0 13.0 0.00 0.00 0.00 79 1014.7
20260904044607 83 186 4.0 14.0 0.00 0.00 0.00 78 1012.8
20260904044539 83 207 4.0 14.0 0.00 0.00 0.00 78 1014.6
20260904043054 83 169 7.0 16.0 0.00 0.00 0.00 77 1012.4
20260904043038 83 169 7.0 16.0 0.00 0.00 0.00 77 1014.1
20260904041548 84 116 7.0 17.0 0.00 0.00 0.00 75 1012.5
20260904041542 84 140 7.0 17.0 0.00 0.00 0.00 75 1014.1
20260904040054 84 167 7.0 19.0 0.00 0.00 0.00 72 1012.6
20260904040037 84 122 8.0 18.0 0.00 0.00 0.00 73 1014.1
20260904034555 85 144 8.0 18.0 0.00 0.00 0.00 69 1012.7
20260904034536 85 135 7.0 18.0 0.00 0.00 0.00 69 1014.2
20260904033057 86 138 7.0 17.0 0.00 0.00 0.00 64 1012.5
20260904033036 86 138 6.0 16.0 0.00 0.00 0.00 65 1014.1
20260904031606 87 163 6.0 23.0 0.00 0.00 0.00 63 1012.4
20260904031541 87 135 5.0 17.0 0.00 0.00 0.00 64 1013.8
20260904030055 87 170 7.0 23.0 0.00 0.00 0.00 62 1012.1
20260904030037 87 155 7.0 22.0 0.00 0.00 0.00 63 1013.5
20260904024556 87 119 7.0 16.0 0.00 0.00 0.00 62 1011.8
20260904024536 87 123 7.0 16.0 0.00 0.00 0.00 62 1013.3
20260904023050 87 145 6.0 16.0 0.00 0.00 0.00 62 1011.2
20260904023033 87 123 6.0 12.0 0.00 0.00 0.00 62 1012.8
20260904021555 88 84 6.0 16.0 0.00 0.00 0.00 61 1011.0
20260904021544 88 130 6.0 12.0 0.00 0.00 0.00 62 1012.7
20260904020055 88 140 6.0 14.0 0.00 0.00 0.00 61 1010.8
20260904020040 88 160 6.0 14.0 0.00 0.00 0.00 62 1012.3
20260904014551 88 84 5.0 16.0 0.00 0.00 0.00 61 1010.6
20260904014533 88 84 5.0 16.0 0.00 0.00 0.00 62 1012.2
20260904013057 89 122 9.0 16.0 0.00 0.00 0.00 60 1010.4
20260904013031 89 122 10.0 16.0 0.00 0.00 0.00 61 1012.1
20260904011554 90 143 12.0 20.0 0.00 0.00 0.00 58 1010.2
20260904011531 90 152 11.0 20.0 0.00 0.00 0.00 59 1011.8
20260904010100 92 79 7.0 19.0 0.00 0.00 0.00 55 1010.0
20260904010031 92 79 7.0 17.0 0.00 0.00 0.00 56 1011.6
20260904004559 94 115 11.0 21.0 0.00 0.00 0.00 52 1009.8
20260904004530 94 115 12.0 21.0 0.00 0.00 0.00 53 1011.3
20260904003101 95 88 7.0 16.0 0.00 0.00 0.00 49 1009.4
20260904003030 95 78 8.0 16.0 0.00 0.00 0.00 50 1011.0
20260904001601 97 117 5.0 12.0 0.00 0.00 0.00 47 1009.3
20260904001530 97 82 6.0 12.0 0.00 0.00 0.00 47 1010.9
20260904000028 97 84 6.0 11.0 0.00 0.00 0.00 45 1010.8
20260903234555 98 0 4.0 9.0 0.00 0.00 0.00 43 1009.1
20260903234527 98 64 4.0 9.0 0.00 0.00 0.00 44 1010.6
20260903233054 98 115 4.0 13.0 0.00 0.00 0.00 44 1009.1
20260903233033 98 69 4.0 13.0 0.00 0.00 0.00 44 1010.7
20260903231555 98 146 5.0 11.0 0.00 0.00 0.00 43 1009.1
20260903231526 98 140 6.0 10.0 0.00 0.00 0.00 43 1010.7
20260903230027 99 129 5.0 13.0 0.00 0.00 0.00 44 1010.6
20260903224604 98 0 4.0 13.0 0.00 0.00 0.00 43 1009.0
20260903224533 98 54 2.0 13.0 0.00 0.00 0.00 44 1010.5
20260903223102 99 128 5.0 12.0 0.00 0.00 0.00 45 1009.0
20260903223022 99 154 5.0 12.0 0.00 0.00 0.00 45 1010.6
20260903221558 100 116 3.0 13.0 0.00 0.00 0.00 43 1009.0
20260903221540 100 149 3.0 11.0 0.00 0.00 0.00 44 1010.7
20260903220058 100 0 2.0 9.0 0.00 0.00 0.00 44 1009.2
20260903220020 100 136 1.0 9.0 0.00 0.00 0.00 44 1010.7
20260903214602 100 122 4.0 10.0 0.00 0.00 0.00 44 1009.4
20260903214519 100 116 3.0 10.0 0.00 0.00 0.00 44 1010.9
20260903213100 101 36 5.0 9.0 0.00 0.00 0.00 43 1009.5
20260903213021 101 103 6.0 9.0 0.00 0.00 0.00 43 1011.0
20260903211556 101 132 5.0 12.0 0.00 0.00 0.00 43 1009.6
20260903211513 101 188 7.0 12.0 0.00 0.00 0.00 44 1011.1
20260903210055 100 0 4.0 10.0 0.00 0.00 0.00 43 1010.0
20260903210014 100 171 3.0 10.0 0.00 0.00 0.00 44 1011.5
20260903204556 100 196 3.0 12.0 0.00 0.00 0.00 45 1010.0
20260903204510 100 197 3.0 12.0 0.00 0.00 0.00 45 1011.7
20260903203059 100 155 4.0 10.0 0.00 0.00 0.00 45 1010.2
20260903203010 100 86 4.0 10.0 0.00 0.00 0.00 45 1011.8
20260903201558 99 163 5.0 10.0 0.00 0.00 0.00 45 1010.4
20260903201504 99 228 5.0 10.0 0.00 0.00 0.00 46 1012.0
20260903200057 98 142 5.0 13.0 0.00 0.00 0.00 48 1010.6
20260903200002 98 135 5.0 13.0 0.00 0.00 0.00 49 1012.1
20260903194559 98 156 6.0 13.0 0.00 0.00 0.00 48 1012.2
20260903194553 98 142 3.0 11.0 0.00 0.00 0.00 47 1010.8
20260903193100 98 128 6.0 13.0 0.00 0.00 0.00 47 1011.0
20260903193056 98 221 5.0 12.0 0.00 0.00 0.00 48 1012.7
20260903191554 98 112 2.0 10.0 0.00 0.00 0.00 49 1011.4
20260903190053 97 0 3.0 10.0 0.00 0.00 0.00 53 1011.7
20260903184556 97 181 3.0 9.0 0.00 0.00 0.00 53 1011.9
20260903184548 97 164 2.0 9.0 0.00 0.00 0.00 53 1013.3
20260903183055 96 184 3.0 9.0 0.00 0.00 0.00 55 1012.1
20260903183044 96 169 2.0 9.0 0.00 0.00 0.00 56 1013.6
20260903181553 95 0 2.0 13.0 0.00 0.00 0.00 57 1012.4
20260903181541 95 209 2.0 11.0 0.00 0.00 0.00 57 1014.2
20260903180116 95 231 2.0 10.0 0.00 0.00 0.00 59 1012.5
20260903180105 95 160 2.0 9.0 0.00 0.00 0.00 60 1014.2